Flag for Canada Weather past 2 weeks in Kenora, Ontario, Canada

Now
59 °F

Scattered clouds.


Feels Like: 58 °F
Forecast: 58 / 73 °F
Wind: 6 mph from Northwest

Location: Kenora

Current Time: Jul 28, 2014 at 8:45:07 AM

Latest Report: Jul 28, 2014 at 8:00 AM


Visibility: 15 mi

Pressure: 30.24 "Hg

Humidity: 88%

Dew point: 55 °F

Location of KenoraLocation

Historic Weather in Kenora — Graph

°F

Kenora temperature yesterday

Maximum temperature yesterday: 70 °F (at 5:00 PM)
Minimum temperature yesterday: 55 °F (at 7:00 AM)
Average temperature yesterday: 62 °F

Past Weeks' High & Low Weather Summary

 TemperatureHumidityPressure
High86 °F (Jul 20, 6:00 PM)100% (Jul 13, 11:00 PM)30.34 "Hg (Jul 13, 11:00 PM)
Low48 °F (Jul 13, 11:00 PM)38% (Jul 23, 5:00 PM)29.58 "Hg (Jul 20, 2:00 PM)
Average65 °F73%29.92 "Hg
* Reported Jul 13 7:00 AM — Jul 28 7:00 AM, Kenora, Weather by CustomWeather, © 2014

Note: Actual official high and low records may vary slightly from our data, if they occured in-between our weather recording intervals... More about our weather records

Advertising

Kenora weather history for previous 24 hours

 ConditionsComfort  
Time TempWeatherWind HumidityBarometerVisibility
7:00 AM
Jul 28
57 °FScattered clouds.5 mph94%30.23 "Hg15 mi
6:00 AM55 °FPassing clouds.8 mph94%30.22 "Hg15 mi
5:00 AM57 °FPassing clouds.6 mph94%30.22 "Hg15 mi
4:00 AM57 °FPassing clouds.3 mph88%30.21 "Hg15 mi
3:00 AM59 °FPassing clouds.5 mph82%30.21 "Hg15 mi
2:00 AM59 °FPassing clouds.3 mph88%30.20 "Hg15 mi
1:00 AM61 °FPassing clouds.5 mph77%30.19 "Hg15 mi
12:00 AM61 °FPassing clouds.3 mph72%30.19 "Hg15 mi
11:00 PM
Jul 27
63 °FPassing clouds.3 mph64%30.19 "Hg15 mi
10:00 PM63 °FPartly sunny.3 mph68%30.19 "Hg15 mi
9:00 PM63 °FPartly sunny.3 mph68%30.18 "Hg15 mi
8:00 PM66 °FPartly sunny.5 mph64%30.17 "Hg15 mi
7:00 PM68 °FBroken clouds.6 mph60%30.16 "Hg15 mi
6:00 PM68 °FBroken clouds.5 mph56%30.16 "Hg15 mi
5:00 PM70 °FBroken clouds.10 mph53%30.15 "Hg15 mi
4:00 PM68 °FPartly sunny.9 mph56%30.14 "Hg15 mi
3:00 PM66 °FPartly sunny.12 mph56%30.14 "Hg15 mi
2:00 PM66 °FPartly sunny.9 mph56%30.13 "Hg15 mi
1:00 PM66 °FPartly sunny.8 mph64%30.12 "Hg15 mi
12:00 PM64 °FPartly sunny.13 mph64%30.10 "Hg15 mi
11:00 AM64 °FPartly sunny.13 mph64%30.08 "Hg15 mi
10:00 AM59 °FPartly sunny.10 mph82%30.06 "Hg15 mi
9:00 AM57 °FMostly cloudy.10 mph88%30.02 "Hg12 mi
8:00 AM57 °FLow clouds.13 mph88%29.99 "Hg12 mi
Weather by CustomWeather, © 2014

See weather overviewHow to use our weather pages